Flag for Taiwan Weather past 2 weeks in Taichung, Taiwan

Now
77 °F

Partly cloudy.


Feels Like: 78 °F
Forecast: 78 / 89 °F
Wind: 20 mph from West

Location: Chiang Kai Shek

Current Time: Apr 19, 2015 at 3:45:28 AM

Latest Report: Apr 19, 2015 at 3:00 AM


Visibility: 5 mi

Pressure: 29.77 "Hg

Humidity: 94%

Dew point: 75 °F

Location of TaichungLocation

Historic Weather in Taichung — Graph

°F

Taichung temperature yesterday

Maximum temperature yesterday: 86 °F (at 10:30 AM)
Minimum temperature yesterday: 68 °F (at 12:00 AM)
Average temperature yesterday: 76 °F

Past Weeks' High & Low Weather Summary

 TemperatureHumidityPressure
High88 °F (Apr 4, 1:30 PM)100% (Apr 4, 2:00 AM)30.21 "Hg (Apr 4, 2:00 AM)
Low54 °F (Apr 14, 3:30 AM)27% (Apr 14, 1:00 PM)29.80 "Hg (Apr 4, 2:00 AM)
Average68 °F82%30.01 "Hg
* Reported Apr 4 2:00 AM — Apr 19 2:00 AM, Taichung, Weather by CustomWeather, © 2015

Note: Actual official high and low records may vary slightly from our data, if they occured in-between our weather recording intervals... More about our weather records

Advertising

Taichung weather history for previous 24 hours

 ConditionsComfort  
Time TempWeatherWind HumidityBarometerVisibility
2:00 AM
Sun, Apr 19
77 °FPassing clouds.22 mph94%29.80 "Hg5 mi
1:56 AM77 °FPassing clouds.22 mph94%29.80 "Hg5 mi
1:30 AM77 °FPassing clouds.22 mph94%29.80 "Hg5 mi
1:00 AM77 °FPassing clouds.22 mph94%29.80 "Hg5 mi
12:00 AM77 °FPassing clouds.18 mph94%29.80 "Hg5 mi
11:30 PM
Sat, Apr 18
77 °FPassing clouds.18 mph94%29.80 "Hg5 mi
11:00 PM77 °FPassing clouds.15 mph94%29.80 "Hg4 mi
10:30 PM75 °FFog.12 mph100%29.80 "Hg3 mi
10:00 PM75 °FFog.12 mph100%29.80 "Hg3 mi
9:30 PM75 °FThundershowers. Partly cloudy.8 mph94%29.83 "Hg3 mi
9:00 PM75 °FThunderstorms. Partly cloudy.8 mph94%29.83 "Hg2 mi
8:52 PM75 °FThunderstorms. Partly cloudy.8 mph94%29.83 "Hg1 mi
8:30 PM75 °FThunderstorms. Partly cloudy.7 mph89%29.83 "Hg2 mi
8:00 PM75 °FSprinkles. Passing clouds.6 mph89%29.83 "Hg2 mi
7:30 PM75 °FSprinkles. Passing clouds.7 mph89%29.83 "Hg4 mi
7:00 PM75 °FSprinkles. Passing clouds.6 mph89%29.80 "Hg4 mi
6:46 PM77 °FSprinkles. Passing clouds.8 mph83%29.80 "Hg4 mi
6:30 PM77 °FPassing clouds.8 mph83%29.83 "Hg4 mi
6:00 PM77 °FPartly sunny.9 mph83%29.80 "Hg4 mi
5:30 PM79 °FPartly sunny.10 mph84%29.80 "HgN/A
5:00 PM79 °FPartly sunny.10 mph84%29.80 "HgN/A
4:30 PM79 °FPartly sunny.8 mph84%29.80 "HgN/A
4:00 PM79 °FPartly sunny.14 mph84%29.80 "HgN/A
3:30 PM81 °FPartly sunny.16 mph79%29.80 "Hg6 mi
3:00 PM81 °FPartly sunny.9 mph79%29.83 "Hg6 mi
2:45 PM81 °FPartly sunny.10 mph79%29.83 "Hg6 mi
2:30 PM81 °FLight rain. Partly sunny.16 mph79%29.83 "Hg6 mi
2:00 PM81 °FPartly sunny.16 mph79%29.83 "Hg6 mi
1:45 PM82 °FPartly sunny.15 mph74%29.83 "Hg4 mi
1:30 PM82 °FPartly sunny.15 mph74%29.83 "Hg3 mi
1:00 PM82 °FPartly sunny.14 mph74%29.83 "Hg4 mi
12:30 PM84 °FPartly sunny.12 mph66%29.86 "Hg4 mi
12:00 PM86 °FPartly sunny.10 mph62%29.86 "Hg4 mi
11:30 AM86 °FPartly sunny.12 mph62%29.86 "Hg6 mi
11:00 AM86 °FPartly sunny.10 mph62%29.86 "HgN/A
10:30 AM86 °FPartly sunny.3 mph59%29.86 "HgN/A
10:00 AM84 °FBroken clouds.8 mph66%29.89 "Hg6 mi
9:30 AM82 °FBroken clouds.6 mph70%29.89 "Hg2 mi
9:00 AM79 °FBroken clouds.5 mph79%29.89 "Hg1 mi
8:30 AM77 °FFog.2 mph83%29.89 "Hg1 mi
8:00 AM73 °FFog.1 mph94%29.89 "Hg1 mi
7:30 AM73 °FFog.2 mph94%29.89 "Hg1 mi
7:00 AM73 °FFog.3 mph89%29.89 "Hg1 mi
6:30 AM72 °FFog.2 mph94%29.89 "Hg1 mi
6:00 AM72 °FFog.3 mph94%29.89 "Hg1 mi
5:30 AM70 °FFog.2 mph100%29.89 "Hg1 mi
5:00 AM70 °FFog.3 mph100%29.89 "Hg2 mi
4:30 AM70 °FFog.3 mph100%29.89 "Hg2 mi
4:00 AM70 °FFog.1 mph100%29.86 "Hg1 mi
3:30 AM70 °FFog.2 mph94%29.86 "Hg1 mi
3:00 AM68 °FFog.1 mph100%29.86 "Hg1 mi
Weather by CustomWeather, © 2015

See weather overviewHow to use our weather pages